Weather History for KWJF - September, 2013

Change the Weather History Date:

Sunday, September 15, 2013

  Actual Average Record
Temperature  
Mean Temperature 81 °F 74 °F  
Max Temperature 98 °F 91 °F 106 °F (1951)
Min Temperature 64 °F 57 °F 43 °F (1970)
Degree Days  
Heating Degree Days 0    
Month to date heating degree days 0  
Since 1 July heating degree days 0  
Cooling Degree Days 16    
Month to date cooling degree days 260  
Year to date cooling degree days 2131  
Growing Degree Days 30 (Base 50)    
Moisture  
Dew Point 41 °F    
Average Humidity 30    
Maximum Humidity 48    
Minimum Humidity 12    
Precipitation  
Precipitation 0.00 in 0.01 in 0.04 in (1984)
Month to date precipitation T 0.06  
Year to date precipitation 1.12 5.16  
Since 1 July precipitation 0.02 0.25  
Snow  
Snow 0.00 in - 0.00 in ()
Month to date snowfall 0.0  
Since 1 July snowfall 0.0  
Since 1 September snowfall 0.0  
Snow Depth 0.00 in    
Sea Level Pressure  
Sea Level Pressure 29.75 in    
Wind  
Wind Speed 7 mph (WSW)    
Max Wind Speed 21 mph    
Max Gust Speed 29 mph    
Visibility 10 miles    
Events      
T = Trace of Precipitation, MM = Missing Value Source: NWS Daily Summary

Daily Weather History Graph

Daily Weather History Graph

Search for Another Location

Airport or City:

Trip Planner

Search our weather history database for the weather conditions in past years. The results will help you decide how hot, cold, wet, or windy it might be!

Date:

Astronomy

Sep. 15, 2013 Rise Set
Actual Time 6:36 AM PDT 6:59 PM PDT
Civil Twilight 6:10 AM PDT 7:24 PM PDT
Nautical Twilight 5:41 AM PDT 7:54 PM PDT
Astronomical Twilight 5:10 AM PDT 8:24 PM PDT
Moon 4:23 PM PDT (9/15) 2:27 AM PDT (9/15)
Length of Visible Light 13h 13m
Length of Day
12h 23m
Waxing Gibbous, 83% of the Moon is Illuminated
Sep 15
Waxing Gibbous
Sep 19
Full
Sep 26
Last Quarter
Oct 4
New
Oct 11
First Quarter

Hourly Weather History & Observations

Time (PDT) Temp. Dew Point Humidity Pressure Visibility Wind Dir Wind Speed Gust Speed Precip Events Conditions
12:56 AM 73.0 °F 48.0 °F 41% 29.72 in 10.0 mi ENE 4.6 mph - N/A   Clear
1:56 AM 72.0 °F 48.9 °F 44% 29.72 in 10.0 mi Calm Calm - N/A   Clear
2:56 AM 66.9 °F 46.9 °F 49% 29.73 in 10.0 mi Calm Calm - N/A   Clear
3:56 AM 66.9 °F 44.1 °F 44% 29.73 in 10.0 mi West 6.9 mph - N/A   Clear
4:56 AM 68.0 °F 45.0 °F 43% 29.74 in 10.0 mi Calm Calm - N/A   Clear
5:56 AM 64.9 °F 44.1 °F 47% 29.75 in 10.0 mi Calm Calm - N/A   Clear
6:56 AM 64.0 °F 44.1 °F 48% 29.78 in 10.0 mi South 4.6 mph - N/A   Clear
7:56 AM 69.1 °F 45.0 °F 42% - 10.0 mi Calm Calm - N/A   Clear
8:56 AM 77.0 °F 48.0 °F 36% - 10.0 mi Calm Calm - N/A   Clear
9:56 AM 84.0 °F 46.9 °F 27% 29.80 in 10.0 mi Calm Calm - N/A   Clear
10:56 AM 90.0 °F 43.0 °F 19% 29.78 in 10.0 mi Calm Calm - N/A   Clear
11:56 AM 95.0 °F 36.0 °F 13% 29.76 in 10.0 mi West 3.5 mph - N/A   Clear
12:56 PM 96.1 °F 35.1 °F 12% 29.75 in 10.0 mi SW 8.1 mph 21.9 mph N/A   Clear
1:56 PM 97.0 °F 35.1 °F 11% 29.74 in 10.0 mi SSW 9.2 mph 19.6 mph N/A   Clear
2:56 PM 97.0 °F 37.0 °F 12% 29.73 in 10.0 mi West 13.8 mph 24.2 mph N/A   Clear
3:56 PM 97.0 °F 37.0 °F 12% 29.72 in 10.0 mi WSW 18.4 mph 24.2 mph N/A   Clear
4:56 PM 95.0 °F 36.0 °F 13% 29.72 in 10.0 mi West 17.3 mph 23.0 mph N/A   Clear
5:56 PM 93.0 °F 37.9 °F 15% 29.73 in 10.0 mi WSW 13.8 mph - N/A   Clear
6:56 PM 88.0 °F 37.0 °F 16% 29.75 in 10.0 mi West 8.1 mph - N/A   Clear
7:56 PM 84.9 °F 36.0 °F 17% 29.76 in 10.0 mi West 16.1 mph 21.9 mph N/A   Clear
8:56 PM 84.0 °F 37.0 °F 19% 29.78 in 10.0 mi West 6.9 mph - N/A   Clear
9:56 PM 82.9 °F 39.0 °F 21% 29.78 in 10.0 mi WSW 11.5 mph - N/A   Clear
10:56 PM 77.0 °F 44.1 °F 31% 29.79 in 10.0 mi West 11.5 mph - N/A   Clear
11:56 PM 75.0 °F 43.0 °F 32% 29.80 in 10.0 mi WSW 8.1 mph - N/A   Clear